Location: Cahas Mountain Overlook
(37.0833°N, 80.1000°W)
Time: 10:51:17
(UTC-04:00)

Vanguard 1 Rocket - Pass Details

Date: 16 February 2026
Orbit: 653 x 4214 km, 34.3° (Epoch: 15 March)

Event Time Altitude Azimuth Distance (km) Brightness Sun altitude
Rises 21:04:58 0° 285° (WNW) 7,303 13.0 -37.0°
Reaches altitude 10° 21:10:09 10° 277° (W) 6,670 12.5 -38.0°
Maximum altitude 21:29:40 34° 223° (SW) 5,587 11.4 -41.7°
Enters shadow 21:47:48 14° 171° (S) 6,619 11.5 -45.1°
